Voltar ao catálogo

STARLINK-5037

AtivoComunicaçõesVLEO
NORAD 53896·PAYLOAD·🇺🇸 United States

Lançado Sep 24, 2022 de Cape Canaveral Space Force Station

Loading…

Próximas Passagens (próximas 24 horas)

TLE

AtualizadoSource: CelesTrak SupGP

Época: Sep 14, 2026, 20:40 UTC

1 53896C 22119L   26257.86159722 -.00000079  00000+0 -22539-5 0  2578
2 53896  53.1605 190.4556 0001291  97.4545  42.0094 15.35405460    13

Acompanhe STARLINK-5037 em tempo real com AllMySat

Download on the App Store